Tracking 17844 objects as of 25-August-2016
HD Live streaming from Space Station
objects crossing your sky now

USA 113

Track USA 113 now!
USA 113 is classified as:


NORAD ID: 23628
Int'l Code: 1995-038A
Perigee: 35,782.8 km
Apogee: 35,805.7 km
Inclination: 8.5 °
Period: 1,436.1 minutes
Semi major axis: 42165 km
RCS: Unknown
Launch date: July 31, 1995
Source: United States (US)
Launch site: AIR FORCE EASTERN TEST RANGE (AFETR)

Super High Frequency (SHF) for U.S. government and military; sophisticated survivability enhancement; worldwide, longhaul coverage; X-band.
Your satellite tracking list
Your tracking list is empty





NASA's NSSDC Master Catalog

Two Line Element Set (TLE):
1 23628U 95038A   14001.00000000 0.00000000  00000-0  00000-0 0    05
2 23628   8.4831  51.6873 0002712 230.6355 357.7764  1.00270000    02
Source of the keplerian elements: McCants

N2YO: 530